TimeMDT,TemperatureF,Dew PointF,Humidity,Sea Level PressureIn,VisibilityMPH,Wind Direction,Wind SpeedMPH,Gust SpeedMPH,PrecipitationIn,Events,Conditions,WindDirDegrees,DateUTC
12:53 AM,53.1,34.0,48,30.09,10.0,East,15.0,-,N/A,,Clear,100,2013-05-23 06:53:00
1:53 AM,51.1,34.0,52,30.10,10.0,ESE,15.0,-,N/A,,Clear,110,2013-05-23 07:53:00
2:53 AM,50.0,35.1,57,30.09,10.0,East,15.0,-,N/A,,Clear,100,2013-05-23 08:53:00
3:53 AM,50.0,36.0,59,30.10,10.0,East,16.1,-,N/A,,Clear,100,2013-05-23 09:53:00
4:53 AM,50.0,37.9,63,30.09,10.0,East,19.6,-,N/A,,Clear,100,2013-05-23 10:53:00
5:53 AM,50.0,39.0,66,30.10,10.0,ESE,20.7,28.8,N/A,,Clear,110,2013-05-23 11:53:00
6:53 AM,51.1,42.1,71,30.08,10.0,East,23.0,-,N/A,,Clear,100,2013-05-23 12:53:00
7:53 AM,54.0,42.1,64,30.09,10.0,ESE,26.5,33.4,N/A,,Clear,110,2013-05-23 13:53:00
8:53 AM,57.9,43.0,58,30.07,10.0,ESE,29.9,36.8,N/A,,Clear,110,2013-05-23 14:53:00
9:53 AM,61.0,39.9,46,30.04,10.0,ESE,26.5,39.1,N/A,,Clear,120,2013-05-23 15:53:00
10:53 AM,66.0,37.0,34,30.00,10.0,SE,35.7,48.3,N/A,,Clear,130,2013-05-23 16:53:00
11:53 AM,70.0,39.9,33,29.99,10.0,ESE,32.2,44.9,N/A,,Clear,120,2013-05-23 17:53:00
12:53 PM,66.9,37.9,34,29.99,10.0,ESE,35.7,41.4,N/A,,Clear,120,2013-05-23 18:53:00
1:53 PM,69.1,37.9,32,29.97,10.0,ESE,35.7,43.7,N/A,,Scattered Clouds,120,2013-05-23 19:53:00
2:53 PM,68.0,39.0,35,29.96,10.0,ESE,33.4,40.3,N/A,,Mostly Cloudy,120,2013-05-23 20:53:00
3:53 PM,70.0,36.0,29,29.93,10.0,SE,38.0,48.3,N/A,,Partly Cloudy,130,2013-05-23 21:53:00
4:53 PM,70.0,37.0,30,29.93,10.0,SE,34.5,42.6,N/A,,Scattered Clouds,140,2013-05-23 22:53:00
5:53 PM,69.1,37.9,32,29.91,10.0,SE,32.2,42.6,N/A,,Overcast,130,2013-05-23 23:53:00
6:53 PM,69.1,39.0,33,29.88,10.0,SE,31.1,40.3,N/A,,Overcast,130,2013-05-24 00:53:00
7:53 PM,68.0,39.0,35,29.88,10.0,ESE,27.6,36.8,N/A,,Overcast,120,2013-05-24 01:53:00
8:53 PM,66.0,41.0,40,29.88,10.0,ESE,23.0,-,N/A,,Overcast,120,2013-05-24 02:53:00
9:53 PM,64.9,42.1,43,29.88,10.0,ESE,24.2,31.1,N/A,,Overcast,110,2013-05-24 03:53:00
10:53 PM,63.0,42.1,46,29.85,10.0,ESE,26.5,36.8,N/A,,Overcast,110,2013-05-24 04:53:00
11:53 PM,62.1,42.1,48,29.83,10.0,ESE,26.5,34.5,N/A,,Overcast,110,2013-05-24 05:53:00